Zurück zum Katalog

STARLINK-30833

AktivKommunikationVLEO
NORAD 58152·PAYLOAD·🇺🇸 United States

Gestartet Oct 29, 2023 von Vandenberg Space Force Base

Loading…

Nächste Überflüge (nächste 24 Stunden)

TLE

AktuellSource: CelesTrak SupGP

Epoche: Sep 14, 2026, 21:58 UTC

1 58152C 23166C   26257.91576389  .00037827  00000+0  12168-2 0  2572
2 58152  53.1598  59.7149 0001173  81.0939 292.6071 15.31672101    16

Verfolge STARLINK-30833 in Echtzeit mit AllMySat

Download on the App Store